Погода в Сараване

Лаос     15°42′58″N   106°25′09″E
темп.,
°C
ветер,
м/с
пор.,
м/с
влажн.,
%
обл.,
%
осадки,
мм/ч
давл.,
гПа
погр.,
м
16 апреля, пт
пт1601:00+21в2393100 1.1 100964
04:00+21всв1195100 1.8 100915
07:00+23в138952 2.6 1011121
10:00+33з11455 0.0 1012982
13:00+35зсз223692 0.1 10082538
16:00+30юв235597 0.1 1007300
19:00+23в139261 2.4 100977
22:00+22всв1296100 1.6 101342
17 апреля, сб
сб1701:00+22в129699 1.8 101153
04:00+21в129777 0.2 101165
07:00+23юв019197 0.3 1013132
10:00+29зсз116532 0.9 1014882
13:00+29сз127096 6.5 1011708
16:00+30ссз125992 1.9 1009902
19:00+25с1180100 2.0 101019
22:00+23всв118614 0.0 101219
18 апреля, вс
вс1801:00+22в119120 0.0 101248
04:00+21в22945 0.4 101163
07:00+23вюв13796 0.4 1013191
10:00+32зюз12468 0.1 10131332
13:00+33зсз3339100 0.1 10082563
16:00+30ссз015668 0.3 1008559
19:00+22вюв239748 3.5 101092
22:00+21в129829 2.6 101152
19 апреля, пн
пн1901:00+22в129632 3.8 101053
04:00+21в129842 1.5 100959
07:00+22вюв1292100 2.6 1011158
10:00+30юз115854 0.4 1011983
13:00+25з1276100 1.6 1009310
16:00+28ююв1165100 0.9 1008739
19:00+22юз1198100 4.8 101049
22:00+22вюв1398100 5.3 1011101
20 апреля, вт
вт2001:00+21в129899 5.4 100980
04:00+21вюв129898 0.0 100962
07:00+22вюв1294100 0.0 1011142
10:00+28ююв116394 0.3 1012849
13:00+30зсз225997 1.7 10091369
16:00+29з125745 0.9 1007933
19:00+24ссз117753 1.1 100912
22:00+22в11877 0.1 101117